Location: Saluda
(35.2377°N, 82.3468°W)
Time: 13:27:54
(UTC+00:00)

SR - Pass Details

Date: 07 October 2022
Orbit: 577 x 875 km, 66.7° (Epoch: 28 November)

Event Time Altitude Azimuth Distance (km) Brightness Sun altitude
Rises 01:34:33 0° 224° (SW) 3,406 ? -30.9°
Reaches altitude 10° 01:37:07 10° 230° (SW) 2,495 ? -31.4°
Maximum altitude 01:42:40 44° 302° (WNW) 1,187 ? -32.4°
Enters shadow 01:45:41 25° 359° (N) 1,687 ? -33.0°
Drops below altitude 10° 01:48:16 10° 14° (NNE) 2,518 - -33.5°
Sets 01:50:52 0° 21° (NNE) 3,440 - -34.0°
